Sentinel-1C

operational
NORAD ID: 62261 Int'l Des: 2024-235 Owner: COPERN/ESA Country: I-EU
LEOCIRCULARRETROGRADESSO

About Sentinel-1C

Description loading...

Live Position

Loading 3D Globe...

Upcoming Passes

Altitude History

Altitude vs Time

uPlot chart will show altitude changes over time

Two-Line Element Set

1 62261U 24235A 26061.01826426 .00000020 00000-0 14025-4 0 9995
2 62261 98.1824 69.8538 0001326 90.0134 270.1217 14.59199425 65784
Epoch: Mar 2, 2026 • Age: 25 hours

Current Status

Altitude 708.7 km
Velocity 7.50 km/s
Sub-Earth Point -33.05°S, 99.2°W
Launch Date Dec 5, 2024
Age 1.2 years
Type earth observation

Technical Details

Classification Payload
Mass 2157.00 kg
Dry Mass 2027.00 kg
Total Mass 2157.00 kg
Length 3.42 m
Diameter 1.60 m
Span 21.04 m
Shape Box + 4 pan
Manufacturer THALES
Bus Type PRIMA
Phase Status In Orbit
Owner/State COPERN/ESA/I-EU

Large Constellations

Loading constellations...